This is the latest recevied weather packets stored in our database for station/object CX5ACA-13. If no packets are shown the sender has not sent any weather packets the latest 10 day(s).
| Time | Temp. | Humidity | Pressure | Rain* | Wind** | Luminosity | Snow |
|---|---|---|---|---|---|---|---|
| 1777925180 | 20° C | 60% | 1011.3 hPa | 0 mm | - | 40 W/m² | - |
| 1777924876 | 20° C | 61% | 1011.3 hPa | 0 mm | - | 56 W/m² | - |
| 1777924573 | 20° C | 59% | 1011.3 hPa | 0 mm | - | 74 W/m² | - |
| 1777924269 | 20° C | 60% | 1011.3 hPa | 0 mm | - | 87 W/m² | - |
| 1777923966 | 20° C | 59% | 1011.1 hPa | 0 mm | - | 103 W/m² | - |
| 1777923661 | 20.56° C | 58% | 1011.1 hPa | 0 mm | - | 121 W/m² | - |
| 1777923358 | 21.11° C | 57% | 1011 hPa | 0 mm | - | 123 W/m² | - |
| 1777923057 | 21.11° C | 57% | 1011.1 hPa | 0 mm | - | 139 W/m² | - |
| 1777922755 | 21.67° C | 57% | 1011 hPa | 0 mm | - | 140 W/m² | - |
| 1777922452 | 22.22° C | 50% | 1011 hPa | 0 mm | - | 160 W/m² | - |
| 1777922150 | 23.33° C | 43% | 1011 hPa | 0 mm | - | 176 W/m² | - |
| 1777921846 | 23.33° C | 43% | 1010.9 hPa | 0 mm | - | 183 W/m² | - |
| 1777921542 | 22.78° C | 44% | 1011 hPa | 0 mm | - | 203 W/m² | - |
| 1777921239 | 22.78° C | 45% | 1011.2 hPa | 0 mm | - | 224 W/m² | - |
| 1777920936 | 22.22° C | 45% | 1011.2 hPa | 0 mm | - | 215 W/m² | - |
| 1777920632 | 22.22° C | 45% | 1011.4 hPa | 0 mm | - | 163 W/m² | - |
| 1777920328 | 22.22° C | 45% | 1011.3 hPa | 0 mm | - | 134 W/m² | - |
| 1777920023 | 23.33° C | 43% | 1011.4 hPa | 0 mm | - | 205 W/m² | - |
| 1777919721 | 22.78° C | 44% | 1011.5 hPa | 0 mm | - | 295 W/m² | - |
| 1777919419 | 23.33° C | 44% | 1011.4 hPa | 0 mm | - | 317 W/m² | - |
| 1777919115 | 22.78° C | 44% | 1011.8 hPa | 0 mm | - | 294 W/m² | - |
| 1777918813 | 22.22° C | 44% | 1011.5 hPa | 0 mm | - | 281 W/m² | - |
| 1777918509 | 21.67° C | 45% | 1011.3 hPa | 0 mm | - | 259 W/m² | - |
| 1777918208 | 22.78° C | 43% | 1011.6 hPa | 0 mm | - | 252 W/m² | - |
| 1777917907 | 22.22° C | 42% | 1011.6 hPa | 0 mm | - | 337 W/m² | - |
* Rain latest hour (hover to see other rain measurements)
** Current wind speed in m/s (hover to see current wind gust speed)